User: anonymous   Login
Location: Oshawa
(43.9000°N, 78.8670°W)
Time: 17:16:45
(UTC-04:00)
Language:

Cosmos 1500 - Orbit

View from above orbital plane
View from above orbital plane
View from above satellite
View from above satellite

Ground track
Ground track

The orbit data is extracted from the following two-line orbital elements,

1 14372U 83099A   15091.40128574  .00007464  00000-0  40674-3 0  9998
2 14372 082.5162 060.3148 0017409 015.7222 148.7439 15.14121785715391
Epoch (UTC): 01 April 2015 09:37:51
Eccentricity: 0.0017409
inclination: 82.5162°
perigee height: 511 km
apogee height: 535 km
right ascension of ascending node: 60.3148°
argument of perigee: 15.7222°
revolutions per day: 15.14121785
mean anomaly at epoch: 148.7439°
orbit number at epoch: 71539

The dashed part of the orbit path shows where the satellite is in the earth's shadow,  

DLR